Shirley, NY

5:41 AM EST on February 19, 2018 (GMT -0500)
Brookhaven

Weather History for KHWV - February, 2013

Change the Weather History Date:

Saturday, February 9, 2013

  Actual Average (KISP) Record (KISP)
Temperature  
Mean Temperature 24 °F -  
Max Temperature 28 °F 38 °F 52 °F (1990)
Min Temperature 19 °F 23 °F 5 °F (1967)
Degree Days  
Heating Degree Days 40    
Moisture  
Dew Point 19 °F    
Average Humidity 76    
Maximum Humidity 100    
Minimum Humidity 49    
Precipitation  
Precipitation 0.14 in - - ()
Sea Level Pressure  
Sea Level Pressure 29.88 in    
Wind  
Wind Speed 21 mph (NNW)    
Max Wind Speed 31 mph    
Max Gust Speed 44 mph    
Visibility 4 miles    
Events Fog , Snow    
Averages and records for this station are not official NWS values.
T = Trace of Precipitation, MM = Missing Value Source: NWS Daily Summary

Daily Weather History Graph

Daily Weather History Graph

Search for Another Location

Airport or City:

Trip Planner

Search our weather history database for the weather conditions in past years. The results will help you decide how hot, cold, wet, or windy it might be!

Date:

Astronomy

Feb. 09, 2013 Rise Set
Actual Time 6:52 AM EST 5:19 PM EST
Civil Twilight 6:24 AM EST 5:47 PM EST
Nautical Twilight 5:51 AM EST 6:19 PM EST
Astronomical Twilight 5:20 AM EST 6:51 PM EST
Moon 6:02 AM EST (2/9) 4:58 PM EST (2/9)
Length of Visible Light 11h 23m
Length of Day
10h 26m
Waning Crescent, 0% of the Moon is Illuminated
Feb 9
Waning Crescent
Feb 10
New
Feb 17
First Quarter
Feb 25
Full
Mar 4
Last Quarter

Hourly Weather History & Observations

Time (EST) Temp. Windchill Dew Point Humidity Pressure Visibility Wind Dir Wind Speed Gust Speed Precip Events Conditions
12:20 AM 24.8 °F 10.0 °F 23.0 °F 93% 29.65 in 0.5 mi North 21.9 mph 36.8 mph 0.01 in Fog Light Freezing Fog
12:56 AM 24.1 °F 8.0 °F 21.9 °F 91% 29.68 in 0.5 mi NNW 25.3 mph 35.7 mph 0.02 in Fog Light Freezing Fog
1:15 AM 24.8 °F 9.0 °F 21.2 °F 86% 29.69 in 0.8 mi North 25.3 mph 35.7 mph 0.01 in   Mist
1:56 AM 25.0 °F 10.9 °F 23.0 °F 92% 29.70 in 0.5 mi NNW 19.6 mph 28.8 mph 0.02 in Fog Light Freezing Fog
2:08 AM 24.8 °F 10.3 °F 24.8 °F 100% 29.71 in 0.5 mi NNW 20.7 mph 27.6 mph N/A Fog Light Freezing Fog
2:52 AM 24.8 °F 11.1 °F 24.8 °F 100% 29.71 in 0.8 mi NNW 18.4 mph 31.1 mph 0.02 in   Mist
2:56 AM 25.0 °F 11.3 °F 24.1 °F 96% 29.72 in 0.8 mi NNW 18.4 mph 31.1 mph 0.02 in   Mist
3:56 AM 26.1 °F 12.3 °F 24.1 °F 92% 29.74 in 0.8 mi NNW 19.6 mph 29.9 mph 0.04 in   Mist
4:15 AM 26.6 °F 12.4 °F 24.8 °F 93% 29.73 in 1.0 mi NNW 21.9 mph 31.1 mph 0.01 in Snow Light Snow
4:52 AM 26.6 °F 12.7 °F 24.8 °F 93% 29.74 in 1.2 mi NNW 20.7 mph 29.9 mph 0.02 in Snow Light Snow
4:56 AM 26.1 °F 12.3 °F 24.1 °F 92% 29.75 in 1.5 mi NNW 19.6 mph 28.8 mph 0.02 in Snow Light Snow
5:26 AM 26.6 °F 13.4 °F 24.8 °F 93% 29.75 in 1.0 mi NNW 18.4 mph 29.9 mph 0.00 in Snow Light Snow
5:34 AM 26.6 °F 13.8 °F 24.8 °F 93% 29.75 in 0.8 mi NNW 17.3 mph 26.5 mph 0.00 in Snow Light Snow
5:51 AM 26.6 °F 13.4 °F 24.8 °F 93% 29.75 in 1.0 mi NW 18.4 mph 24.2 mph 0.01 in Snow Light Snow
5:56 AM 27.0 °F 14.3 °F 25.0 °F 92% 29.76 in 1.0 mi NW 17.3 mph 25.3 mph 0.01 in Snow Light Snow
6:24 AM 26.6 °F 13.1 °F 23.0 °F 86% 29.77 in 1.2 mi NNW 19.6 mph 34.5 mph 0.00 in Snow Light Snow
6:32 AM 26.6 °F 13.8 °F 23.0 °F 86% 29.78 in 2.0 mi NNW 17.3 mph 31.1 mph 0.00 in Snow Light Snow
6:56 AM 26.1 °F 12.3 °F 21.9 °F 84% 29.79 in 2.0 mi NNW 19.6 mph 32.2 mph 0.01 in Snow Light Snow
7:11 AM 26.6 °F 12.7 °F 21.2 °F 80% 29.80 in 1.2 mi NNW 20.7 mph 28.8 mph 0.00 in Snow Light Snow
7:36 AM 26.6 °F 13.1 °F 21.2 °F 80% 29.81 in 2.0 mi NNW 19.6 mph 31.1 mph 0.00 in Snow Light Snow
7:53 AM 26.6 °F 12.7 °F 21.2 °F 80% 29.82 in 1.5 mi NNW 20.7 mph 31.1 mph 0.00 in Snow Light Snow
7:56 AM 27.0 °F 12.8 °F 21.0 °F 78% 29.83 in 1.5 mi NNW 21.9 mph 32.2 mph 0.00 in Snow Light Snow
8:06 AM 26.6 °F 11.7 °F 21.2 °F 80% 29.82 in 1.0 mi NNW 24.2 mph 38.0 mph 0.00 in Snow Light Snow
8:41 AM 26.6 °F 11.4 °F 21.2 °F 80% 29.83 in 2.0 mi NNW 25.3 mph 33.4 mph 0.00 in Snow Light Snow
8:56 AM 26.1 °F 11.3 °F 19.9 °F 78% 29.84 in 1.2 mi NNW 23.0 mph 41.4 mph 0.00 in Snow Light Snow
9:22 AM 26.6 °F 11.4 °F 19.4 °F 74% 29.85 in 2.0 mi NNW 25.3 mph 39.1 mph 0.00 in Snow Light Snow
9:56 AM 26.1 °F 10.1 °F 18.0 °F 71% 29.87 in 2.0 mi NW 27.6 mph 41.4 mph 0.00 in   Overcast
10:44 AM 26.6 °F 12.4 °F 19.4 °F 74% 29.88 in 3.0 mi NNW 21.9 mph 43.7 mph 0.00 in   Overcast
10:56 AM 27.0 °F 10.5 °F 19.0 °F 72% 29.89 in 2.5 mi NNW 31.1 mph 43.7 mph 0.00 in   Overcast
11:35 AM 26.6 °F 11.1 °F 17.6 °F 69% 29.90 in 4.0 mi NW 26.5 mph 40.3 mph 0.00 in   Overcast
11:56 AM 26.1 °F 10.7 °F 17.1 °F 69% 29.91 in 3.0 mi NNW 25.3 mph 38.0 mph 0.00 in   Overcast
12:56 PM 26.1 °F 10.7 °F 16.0 °F 66% 29.93 in 5.0 mi NNW 25.3 mph 35.7 mph 0.00 in   Clear
1:56 PM 28.0 °F 13.6 °F 12.9 °F 53% 29.95 in 7.0 mi NNW 24.2 mph 35.7 mph 0.00 in   Clear
2:56 PM 28.9 °F 16.5 °F 14.0 °F 54% 29.99 in 8.0 mi NNW 18.4 mph 35.7 mph 0.00 in   Clear
3:56 PM 28.0 °F 13.9 °F 10.9 °F 49% 30.04 in 9.0 mi NNW 23.0 mph 39.1 mph 0.00 in   Clear
4:56 PM 26.1 °F 10.7 °F 10.0 °F 51% 30.07 in 10.0 mi NNW 25.3 mph 32.2 mph 0.00 in   Clear
5:56 PM 25.0 °F 10.9 °F 8.1 °F 49% 30.13 in 10.0 mi NNW 19.6 mph 29.9 mph 0.00 in   Clear
6:56 PM 24.1 °F 11.0 °F 8.1 °F 51% 30.17 in 10.0 mi NNW 16.1 mph 29.9 mph N/A   Clear
7:56 PM 23.0 °F 9.6 °F 8.1 °F 53% 30.20 in 10.0 mi NNW 16.1 mph - N/A   Clear
8:56 PM 23.0 °F 11.1 °F 8.1 °F 53% 30.22 in 10.0 mi NNW 12.7 mph 20.7 mph N/A   Clear
9:56 PM 23.0 °F 11.7 °F 8.1 °F 53% 30.25 in 10.0 mi NNW 11.5 mph 18.4 mph N/A   Clear
10:56 PM 21.9 °F 8.7 °F 8.1 °F 55% 30.27 in 10.0 mi NNW 15.0 mph 24.2 mph N/A   Clear
11:56 PM 19.9 °F 9.3 °F 7.0 °F 57% 30.30 in 10.0 mi NNW 9.2 mph - N/A   Clear